Wetterdaten: Sonntag, 16.03.2014
Datum Zeit Temperatur Luftfeuchte Luftdruck Regen Wind Richtung Richtung Taupunkt Windchill Windben
16.03.2014 00:00 3,3 C 94 % 1021,7 hPa 0,0 l/m 0,0 km/h (0 Bft) SW 225 2,4 C 16,1 C 0,0 km/h (0 Bft)
16.03.2014 00:05 3,3 C 94 % 1021,4 hPa 0,0 l/m 0,0 km/h (0 Bft) SW 225 2,4 C 16,1 C 0,0 km/h (0 Bft)
16.03.2014 00:10 3,3 C 94 % 1021,4 hPa 0,0 l/m 0,0 km/h (0 Bft) SW 225 2,4 C 16,1 C 0,0 km/h (0 Bft)
16.03.2014 00:15 3,2 C 93 % 1021,4 hPa 0,0 l/m 0,0 km/h (0 Bft) SW 225 2,2 C 16,1 C 0,0 km/h (0 Bft)
16.03.2014 00:20 3,1 C 93 % 1021,4 hPa 0,0 l/m 0,0 km/h (0 Bft) SW 225 2,1 C 16,1 C 0,0 km/h (0 Bft)
16.03.2014 00:25 3,1 C 93 % 1021,4 hPa 0,0 l/m 0,0 km/h (0 Bft) SW 225 2,1 C 16,1 C 0,0 km/h (0 Bft)
16.03.2014 00:30 3,1 C 93 % 1021,4 hPa 0,0 l/m 0,0 km/h (0 Bft) SW 225 2,1 C 16,1 C 0,0 km/h (0 Bft)
16.03.2014 00:35 3,1 C 93 % 1021,4 hPa 0,0 l/m 0,0 km/h (0 Bft) SW 225 2,1 C 16,1 C 0,0 km/h (0 Bft)
16.03.2014 00:40 3,1 C 93 % 1021,4 hPa 0,0 l/m 0,0 km/h (0 Bft) SW 225 2,1 C 16,1 C 0,0 km/h (0 Bft)
16.03.2014 00:45 3,1 C 92 % 1021,8 hPa 0,0 l/m 0,0 km/h (0 Bft) SW 225 1,9 C 16,1 C 0,0 km/h (0 Bft)
16.03.2014 00:50 3,1 C 92 % 1021,8 hPa 0,0 l/m 0,0 km/h (0 Bft) SW 225 1,9 C 16,1 C 0,0 km/h (0 Bft)
16.03.2014 00:55 3,1 C 92 % 1021,8 hPa 0,0 l/m 0,0 km/h (0 Bft) SW 225 1,9 C 16,1 C 0,0 km/h (0 Bft)
16.03.2014 01:00 3,1 C 92 % 1021,8 hPa 0,0 l/m 0,0 km/h (0 Bft) SW 225 1,9 C 16,1 C 0,0 km/h (0 Bft)
16.03.2014 01:05 3,0 C 92 % 1021,7 hPa 0,0 l/m 0,0 km/h (0 Bft) SW 225 1,8 C 16,1 C 0,0 km/h (0 Bft)
16.03.2014 01:10 3,0 C 92 % 1021,7 hPa 0,0 l/m 0,0 km/h (0 Bft) SW 225 1,8 C 16,1 C 0,0 km/h (0 Bft)
16.03.2014 01:15 3,1 C 92 % 1021,7 hPa 0,0 l/m 0,0 km/h (0 Bft) SW 225 1,9 C 16,1 C 0,0 km/h (0 Bft)
16.03.2014 01:20 3,0 C 93 % 1021,7 hPa 0,0 l/m 0,0 km/h (0 Bft) SW 225 2,0 C 16,1 C 0,0 km/h (0 Bft)
16.03.2014 01:25 3,0 C 93 % 1021,6 hPa 0,0 l/m 0,0 km/h (0 Bft) SW 225 2,0 C 16,1 C 0,0 km/h (0 Bft)
16.03.2014 01:28 3,0 C 93 % 1021,6 hPa 0,0 l/m 0,0 km/h (0 Bft) SW 225 2,0 C 16,1 C 0,0 km/h (0 Bft)
16.03.2014 01:30 3,0 C 93 % 1021,6 hPa 0,0 l/m 0,0 km/h (0 Bft) SW 225 2,0 C 16,1 C 0,0 km/h (0 Bft)
16.03.2014 01:35 3,0 C 93 % 1021,6 hPa 0,0 l/m 0,0 km/h (0 Bft) SW 225 2,0 C 16,1 C 0,0 km/h (0 Bft)
16.03.2014 01:40 3,0 C 93 % 1021,6 hPa 0,0 l/m 0,0 km/h (0 Bft) SW 225 2,0 C 16,1 C 0,0 km/h (0 Bft)
16.03.2014 01:45 3,0 C 93 % 1021,5 hPa 0,0 l/m 0,0 km/h (0 Bft) SW 225 2,0 C 16,1 C 0,0 km/h (0 Bft)
16.03.2014 01:50 3,0 C 93 % 1021,5 hPa 0,0 l/m 0,0 km/h (0 Bft) SW 225 2,0 C 16,1 C 0,0 km/h (0 Bft)
16.03.2014 01:55 3,0 C 93 % 1021,5 hPa 0,0 l/m 0,0 km/h (0 Bft) SW 225 2,0 C 16,1 C 0,0 km/h (0 Bft)
16.03.2014 02:00 3,0 C 93 % 1021,5 hPa 0,0 l/m 0,0 km/h (0 Bft) SW 225 2,0 C 16,1 C 0,0 km/h (0 Bft)
16.03.2014 02:05 3,0 C 93 % 1021,4 hPa 0,0 l/m 0,0 km/h (0 Bft) SW 225 2,0 C 16,1 C 0,0 km/h (0 Bft)
16.03.2014 02:10 3,0 C 93 % 1021,4 hPa 0,0 l/m 0,0 km/h (0 Bft) SW 225 2,0 C 16,1 C 0,0 km/h (0 Bft)
16.03.2014 02:15 3,0 C 93 % 1021,4 hPa 0,0 l/m 0,0 km/h (0 Bft) SW 225 2,0 C 16,1 C 0,0 km/h (0 Bft)
16.03.2014 02:20 2,9 C 94 % 1021,4 hPa 0,0 l/m 0,0 km/h (0 Bft) SW 225 2,0 C 16,1 C 0,0 km/h (0 Bft)
16.03.2014 02:25 2,9 C 94 % 1021,2 hPa 0,0 l/m 0,0 km/h (0 Bft) SW 225 2,0 C 16,1 C 0,0 km/h (0 Bft)
16.03.2014 02:30 2,9 C 94 % 1021,2 hPa 0,0 l/m 0,0 km/h (0 Bft) SW 225 2,0 C 16,1 C 0,0 km/h (0 Bft)
16.03.2014 02:35 2,9 C 94 % 1021,2 hPa 0,0 l/m 0,0 km/h (0 Bft) SW 225 2,0 C 16,1 C 0,0 km/h (0 Bft)
16.03.2014 02:40 2,9 C 94 % 1021,2 hPa 0,0 l/m 0,0 km/h (0 Bft) SW 225 2,0 C 16,1 C 0,0 km/h (0 Bft)
16.03.2014 02:45 2,9 C 94 % 1020,9 hPa 0,0 l/m 0,0 km/h (0 Bft) SW 225 2,0 C 16,1 C 0,0 km/h (0 Bft)
16.03.2014 02:50 2,8 C 94 % 1020,9 hPa 0,0 l/m 0,0 km/h (0 Bft) SW 225 1,9 C 16,1 C 0,0 km/h (0 Bft)
16.03.2014 02:55 2,9 C 94 % 1020,9 hPa 0,0 l/m 0,0 km/h (0 Bft) SW 225 2,0 C 16,1 C 0,0 km/h (0 Bft)
16.03.2014 03:00 2,8 C 94 % 1020,9 hPa 0,0 l/m 0,0 km/h (0 Bft) SW 225 1,9 C 16,1 C 0,0 km/h (0 Bft)
16.03.2014 03:05 2,8 C 94 % 1020,3 hPa 0,0 l/m 0,0 km/h (0 Bft) SW 225 1,9 C 16,1 C 0,0 km/h (0 Bft)
16.03.2014 03:10 2,8 C 95 % 1020,3 hPa 0,0 l/m 0,0 km/h (0 Bft) SW 225 2,1 C 16,1 C 0,0 km/h (0 Bft)
16.03.2014 03:15 2,9 C 95 % 1020,3 hPa 0,0 l/m 0,0 km/h (0 Bft) SW 225 2,2 C 16,1 C 0,0 km/h (0 Bft)
16.03.2014 03:20 2,9 C 95 % 1020,3 hPa 0,0 l/m 0,0 km/h (0 Bft) SW 225 2,2 C 16,1 C 0,0 km/h (0 Bft)
16.03.2014 03:25 2,9 C 95 % 1020,1 hPa 0,0 l/m 0,0 km/h (0 Bft) SW 225 2,2 C 16,1 C 0,0 km/h (0 Bft)
16.03.2014 03:30 2,9 C 95 % 1020,1 hPa 0,0 l/m 0,0 km/h (0 Bft) SW 225 2,2 C 16,1 C 0,0 km/h (0 Bft)
16.03.2014 03:35 2,9 C 95 % 1020,1 hPa 0,0 l/m 0,0 km/h (0 Bft) SW 225 2,2 C 16,1 C 0,0 km/h (0 Bft)
16.03.2014 03:40 3,0 C 94 % 1020,1 hPa 0,0 l/m 0,0 km/h (0 Bft) SW 225 2,1 C 16,1 C 0,0 km/h (0 Bft)
16.03.2014 03:45 3,0 C 94 % 1020,1 hPa 0,0 l/m 0,0 km/h (0 Bft) SW 225 2,1 C 16,1 C 0,0 km/h (0 Bft)
16.03.2014 03:50 3,1 C 94 % 1020,1 hPa 0,0 l/m 0,0 km/h (0 Bft) SW 225 2,2 C 16,1 C 0,0 km/h (0 Bft)
16.03.2014 03:55 3,1 C 94 % 1020,1 hPa 0,0 l/m 0,0 km/h (0 Bft) SW 225 2,2 C 16,1 C 0,0 km/h (0 Bft)
16.03.2014 04:00 3,1 C 94 % 1020,1 hPa 0,0 l/m 0,0 km/h (0 Bft) SW 225 2,2 C 16,1 C 0,0 km/h (0 Bft)
16.03.2014 04:05 3,2 C 94 % 1020,1 hPa 0,0 l/m 0,0 km/h (0 Bft) SW 225 2,3 C 16,1 C 0,0 km/h (0 Bft)
16.03.2014 04:10 3,2 C 93 % 1020,1 hPa 0,0 l/m 0,0 km/h (0 Bft) SW 225 2,2 C 16,1 C 0,0 km/h (0 Bft)
16.03.2014 04:15 3,2 C 93 % 1020,1 hPa 0,0 l/m 0,0 km/h (0 Bft) SW 225 2,2 C 16,1 C 0,0 km/h (0 Bft)
16.03.2014 04:20 3,2 C 93 % 1020,1 hPa 0,0 l/m 0,0 km/h (0 Bft) SW 225 2,2 C 16,1 C 0,0 km/h (0 Bft)
16.03.2014 04:25 3,2 C 93 % 1020,1 hPa 0,0 l/m 0,0 km/h (0 Bft) SW 225 2,2 C 16,1 C 0,0 km/h (0 Bft)
16.03.2014 04:30 3,2 C 93 % 1020,1 hPa 0,0 l/m 0,0 km/h (0 Bft) SW 225 2,2 C 16,1 C 0,0 km/h (0 Bft)
16.03.2014 04:35 3,2 C 93 % 1020,1 hPa 0,0 l/m 0,0 km/h (0 Bft) SW 225 2,2 C 16,1 C 0,0 km/h (0 Bft)
16.03.2014 04:40 3,1 C 93 % 1020,1 hPa 0,0 l/m 0,0 km/h (0 Bft) SW 225 2,1 C 16,1 C 0,0 km/h (0 Bft)
16.03.2014 04:45 3,1 C 93 % 1020,1 hPa 0,0 l/m 0,0 km/h (0 Bft) SW 225 2,1 C 16,1 C 0,0 km/h (0 Bft)
16.03.2014 04:50 3,2 C 93 % 1020,1 hPa 0,0 l/m 0,0 km/h (0 Bft) SW 225 2,2 C 16,1 C 0,0 km/h (0 Bft)
16.03.2014 04:55 3,1 C 93 % 1020,1 hPa 0,0 l/m 0,0 km/h (0 Bft) SW 225 2,1 C 16,1 C 0,0 km/h (0 Bft)
16.03.2014 05:00 3,1 C 93 % 1020,1 hPa 0,0 l/m 0,0 km/h (0 Bft) SW 225 2,1 C 16,1 C 0,0 km/h (0 Bft)
16.03.2014 05:05 3,1 C 93 % 1020,4 hPa 0,0 l/m 0,0 km/h (0 Bft) SW 225 2,1 C 16,1 C 0,0 km/h (0 Bft)
16.03.2014 05:10 3,1 C 93 % 1020,4 hPa 0,0 l/m 0,0 km/h (0 Bft) SW 225 2,1 C 16,1 C 0,0 km/h (0 Bft)
16.03.2014 05:15 3,1 C 93 % 1020,4 hPa 0,0 l/m 0,0 km/h (0 Bft) SW 225 2,1 C 16,1 C 0,0 km/h (0 Bft)
16.03.2014 05:20 3,1 C 93 % 1020,4 hPa 0,0 l/m 0,0 km/h (0 Bft) SW 225 2,1 C 16,1 C 0,0 km/h (0 Bft)
16.03.2014 05:25 3,2 C 93 % 1020,1 hPa 0,0 l/m 0,0 km/h (0 Bft) SW 225 2,2 C 16,1 C 0,0 km/h (0 Bft)
16.03.2014 05:30 3,2 C 93 % 1020,1 hPa 0,0 l/m 0,0 km/h (0 Bft) SW 225 2,2 C 16,1 C 0,0 km/h (0 Bft)
16.03.2014 05:35 3,2 C 93 % 1020,1 hPa 0,0 l/m 0,0 km/h (0 Bft) SW 225 2,2 C 16,1 C 0,0 km/h (0 Bft)
16.03.2014 05:40 3,3 C 93 % 1020,1 hPa 0,0 l/m 0,0 km/h (0 Bft) SW 225 2,3 C 16,1 C 0,0 km/h (0 Bft)
16.03.2014 05:45 3,4 C 93 % 1020,1 hPa 0,0 l/m 0,0 km/h (0 Bft) SW 225 2,4 C 16,1 C 0,0 km/h (0 Bft)
16.03.2014 05:50 3,4 C 93 % 1020,1 hPa 0,0 l/m 0,0 km/h (0 Bft) SW 225 2,4 C 16,1 C 0,0 km/h (0 Bft)
16.03.2014 05:55 3,4 C 92 % 1020,1 hPa 0,0 l/m 0,0 km/h (0 Bft) SW 225 2,2 C 16,1 C 0,0 km/h (0 Bft)
16.03.2014 06:00 3,4 C 92 % 1020,1 hPa 0,0 l/m 0,0 km/h (0 Bft) SW 225 2,2 C 16,1 C 0,0 km/h (0 Bft)
16.03.2014 06:05 3,4 C 92 % 1020,8 hPa 0,0 l/m 0,0 km/h (0 Bft) SW 225 2,2 C 16,1 C 0,0 km/h (0 Bft)
16.03.2014 06:10 3,5 C 92 % 1020,8 hPa 0,0 l/m 0,0 km/h (0 Bft) SW 225 2,3 C 16,1 C 0,0 km/h (0 Bft)
16.03.2014 06:15 3,6 C 92 % 1020,8 hPa 0,0 l/m 0,0 km/h (0 Bft) SW 225 2,4 C 16,1 C 0,0 km/h (0 Bft)
16.03.2014 06:20 3,6 C 92 % 1020,8 hPa 0,0 l/m 0,0 km/h (0 Bft) SW 225 2,4 C 16,1 C 0,0 km/h (0 Bft)
16.03.2014 06:24 3,6 C 91 % 1020,6 hPa 0,0 l/m 0,0 km/h (0 Bft) SW 225 2,3 C 16,1 C 0,0 km/h (0 Bft)
16.03.2014 06:25 3,6 C 91 % 1020,6 hPa 0,0 l/m 0,0 km/h (0 Bft) SW 225 2,3 C 16,1 C 0,0 km/h (0 Bft)
16.03.2014 06:30 3,7 C 91 % 1020,6 hPa 0,0 l/m 0,0 km/h (0 Bft) SW 225 2,4 C 16,1 C 0,0 km/h (0 Bft)
16.03.2014 06:35 3,7 C 91 % 1020,6 hPa 0,0 l/m 0,0 km/h (0 Bft) SW 225 2,4 C 16,1 C 0,0 km/h (0 Bft)
16.03.2014 06:40 3,8 C 91 % 1020,6 hPa 0,0 l/m 0,0 km/h (0 Bft) SW 225 2,5 C 16,1 C 0,0 km/h (0 Bft)
16.03.2014 06:45 3,8 C 91 % 1020,7 hPa 0,0 l/m 0,0 km/h (0 Bft) SW 225 2,5 C 16,1 C 0,0 km/h (0 Bft)
16.03.2014 06:50 3,8 C 90 % 1020,7 hPa 0,0 l/m 0,0 km/h (0 Bft) SW 225 2,3 C 16,1 C 0,0 km/h (0 Bft)
16.03.2014 06:55 3,9 C 90 % 1020,7 hPa 0,0 l/m 0,0 km/h (0 Bft) SW 225 2,4 C 16,1 C 0,0 km/h (0 Bft)
16.03.2014 07:00 3,8 C 90 % 1020,7 hPa 0,0 l/m 0,0 km/h (0 Bft) SW 225 2,3 C 16,1 C 0,0 km/h (0 Bft)
16.03.2014 07:05 3,9 C 90 % 1020,7 hPa 0,0 l/m 0,0 km/h (0 Bft) SW 225 2,4 C 16,1 C 0,0 km/h (0 Bft)
16.03.2014 07:10 3,9 C 90 % 1020,7 hPa 0,0 l/m 0,0 km/h (0 Bft) SW 225 2,4 C 16,1 C 0,0 km/h (0 Bft)
16.03.2014 07:15 4,1 C 90 % 1020,7 hPa 0,0 l/m 0,0 km/h (0 Bft) SW 225 2,6 C 16,1 C 0,0 km/h (0 Bft)
16.03.2014 07:20 4,1 C 89 % 1020,7 hPa 0,0 l/m 0,0 km/h (0 Bft) SW 225 2,5 C 16,1 C 0,0 km/h (0 Bft)
16.03.2014 07:25 4,1 C 89 % 1021,1 hPa 0,0 l/m 0,0 km/h (0 Bft) SW 225 2,5 C 16,1 C 0,0 km/h (0 Bft)
16.03.2014 07:30 4,1 C 90 % 1021,1 hPa 0,0 l/m 0,0 km/h (0 Bft) SW 225 2,6 C 16,1 C 0,0 km/h (0 Bft)
16.03.2014 07:35 4,1 C 90 % 1021,1 hPa 0,0 l/m 0,0 km/h (0 Bft) SW 225 2,6 C 16,1 C 0,0 km/h (0 Bft)
16.03.2014 07:40 4,1 C 91 % 1021,1 hPa 0,0 l/m 0,0 km/h (0 Bft) SW 225 2,8 C 16,1 C 0,0 km/h (0 Bft)
16.03.2014 07:45 4,2 C 91 % 1021,4 hPa 0,0 l/m 0,0 km/h (0 Bft) SW 225 2,9 C 16,1 C 0,0 km/h (0 Bft)
16.03.2014 07:50 4,3 C 91 % 1021,4 hPa 0,0 l/m 0,0 km/h (0 Bft) SW 225 3,0 C 16,1 C 0,0 km/h (0 Bft)
16.03.2014 07:55 4,3 C 91 % 1021,4 hPa 0,0 l/m 0,0 km/h (0 Bft) SW 225 3,0 C 16,1 C 0,0 km/h (0 Bft)
16.03.2014 08:00 4,4 C 92 % 1021,4 hPa 0,0 l/m 0,0 km/h (0 Bft) SW 225 3,2 C 16,1 C 0,0 km/h (0 Bft)
16.03.2014 08:05 4,4 C 92 % 1021,4 hPa 0,0 l/m 0,0 km/h (0 Bft) SW 225 3,2 C 16,1 C 0,0 km/h (0 Bft)
16.03.2014 08:10 4,5 C 92 % 1021,4 hPa 0,0 l/m 0,0 km/h (0 Bft) SW 225 3,3 C 16,1 C 0,0 km/h (0 Bft)
16.03.2014 08:15 4,5 C 92 % 1021,4 hPa 0,0 l/m 0,0 km/h (0 Bft) SW 225 3,3 C 16,1 C 0,0 km/h (0 Bft)
16.03.2014 08:20 4,5 C 92 % 1021,4 hPa 0,0 l/m 0,0 km/h (0 Bft) SW 225 3,3 C 16,1 C 0,0 km/h (0 Bft)
16.03.2014 08:25 4,6 C 92 % 1021,4 hPa 0,0 l/m 0,0 km/h (0 Bft) SW 225 3,4 C 16,1 C 0,0 km/h (0 Bft)
16.03.2014 08:30 4,9 C 92 % 1021,4 hPa 0,0 l/m 0,0 km/h (0 Bft) SW 225 3,7 C 16,1 C 0,0 km/h (0 Bft)
16.03.2014 08:35 5,0 C 92 % 1021,4 hPa 0,0 l/m 0,0 km/h (0 Bft) SW 225 3,8 C 16,1 C 0,0 km/h (0 Bft)
16.03.2014 08:40 5,2 C 91 % 1021,4 hPa 0,0 l/m 0,0 km/h (0 Bft) SW 225 3,9 C 16,1 C 0,0 km/h (0 Bft)
16.03.2014 08:45 5,2 C 91 % 1020,8 hPa 0,0 l/m 0,0 km/h (0 Bft) SW 225 3,9 C 16,1 C 0,0 km/h (0 Bft)
16.03.2014 08:50 5,3 C 90 % 1020,8 hPa 0,0 l/m 0,0 km/h (0 Bft) SW 225 3,8 C 16,1 C 0,0 km/h (0 Bft)
16.03.2014 08:55 5,3 C 90 % 1020,8 hPa 0,0 l/m 0,0 km/h (0 Bft) SW 225 3,8 C 16,1 C 0,0 km/h (0 Bft)
16.03.2014 09:00 5,4 C 89 % 1020,8 hPa 0,0 l/m 0,0 km/h (0 Bft) SW 225 3,7 C 16,1 C 0,0 km/h (0 Bft)
16.03.2014 09:05 5,6 C 89 % 1021,1 hPa 0,0 l/m 0,0 km/h (0 Bft) SW 225 3,9 C 16,1 C 0,0 km/h (0 Bft)
16.03.2014 09:10 5,9 C 89 % 1021,1 hPa 0,0 l/m 0,0 km/h (0 Bft) SW 225 4,2 C 16,1 C 0,0 km/h (0 Bft)
16.03.2014 09:15 6,1 C 88 % 1021,1 hPa 0,0 l/m 0,0 km/h (0 Bft) SW 225 4,3 C 16,1 C 0,0 km/h (0 Bft)
16.03.2014 09:20 6,3 C 87 % 1021,1 hPa 0,0 l/m 0,0 km/h (0 Bft) SW 225 4,3 C 16,1 C 0,0 km/h (0 Bft)
16.03.2014 09:25 6,5 C 85 % 1021,1 hPa 0,0 l/m 0,0 km/h (0 Bft) SW 225 4,2 C 16,1 C 0,0 km/h (0 Bft)
16.03.2014 09:30 6,8 C 84 % 1021,1 hPa 0,0 l/m 0,0 km/h (0 Bft) SW 225 4,3 C 16,1 C 0,0 km/h (0 Bft)
16.03.2014 09:35 6,8 C 84 % 1021,1 hPa 0,0 l/m 0,0 km/h (0 Bft) SW 225 4,3 C 16,1 C 0,0 km/h (0 Bft)
16.03.2014 09:40 6,7 C 83 % 1021,1 hPa 0,0 l/m 0,0 km/h (0 Bft) SW 225 4,0 C 16,1 C 0,0 km/h (0 Bft)
16.03.2014 09:45 6,7 C 83 % 1021,2 hPa 0,0 l/m 0,0 km/h (0 Bft) SW 225 4,0 C 16,1 C 0,0 km/h (0 Bft)
16.03.2014 09:50 6,9 C 83 % 1021,2 hPa 0,0 l/m 0,0 km/h (0 Bft) SW 225 4,2 C 16,1 C 0,0 km/h (0 Bft)
16.03.2014 09:55 7,0 C 83 % 1021,2 hPa 0,0 l/m 0,0 km/h (0 Bft) SW 225 4,3 C 16,1 C 0,0 km/h (0 Bft)
16.03.2014 10:00 7,3 C 83 % 1021,2 hPa 0,0 l/m 0,0 km/h (0 Bft) SW 225 4,6 C 16,1 C 0,0 km/h (0 Bft)
16.03.2014 10:05 7,6 C 83 % 1021,1 hPa 0,0 l/m 0,0 km/h (0 Bft) SW 225 4,9 C 16,1 C 0,0 km/h (0 Bft)
16.03.2014 10:10 7,8 C 82 % 1021,1 hPa 0,0 l/m 0,0 km/h (0 Bft) SW 225 4,9 C 16,1 C 0,0 km/h (0 Bft)
16.03.2014 10:15 7,8 C 81 % 1021,1 hPa 0,0 l/m 0,0 km/h (0 Bft) SW 225 4,7 C 16,1 C 0,0 km/h (0 Bft)
16.03.2014 10:20 7,9 C 81 % 1021,1 hPa 0,0 l/m 0,0 km/h (0 Bft) SW 225 4,8 C 16,1 C 0,0 km/h (0 Bft)
16.03.2014 10:25 8,5 C 80 % 1021,2 hPa 0,0 l/m 0,0 km/h (0 Bft) SW 225 5,3 C 16,1 C 0,0 km/h (0 Bft)
16.03.2014 10:30 8,9 C 79 % 1021,2 hPa 0,0 l/m 0,0 km/h (0 Bft) SW 225 5,5 C 16,1 C 0,0 km/h (0 Bft)
16.03.2014 10:35 8,8 C 76 % 1021,2 hPa 0,0 l/m 0,0 km/h (0 Bft) SW 225 4,8 C 16,1 C 0,0 km/h (0 Bft)
16.03.2014 10:40 8,8 C 77 % 1021,2 hPa 0,0 l/m 0,0 km/h (0 Bft) SW 225 5,0 C 16,1 C 0,0 km/h (0 Bft)
16.03.2014 10:45 8,9 C 78 % 1021,4 hPa 0,0 l/m 0,0 km/h (0 Bft) SW 225 5,3 C 16,1 C 0,0 km/h (0 Bft)
16.03.2014 10:50 8,9 C 77 % 1021,4 hPa 0,0 l/m 0,0 km/h (0 Bft) SW 225 5,1 C 16,1 C 0,0 km/h (0 Bft)
16.03.2014 10:55 9,0 C 75 % 1021,4 hPa 0,0 l/m 0,0 km/h (0 Bft) SW 225 4,8 C 16,1 C 0,0 km/h (0 Bft)
16.03.2014 11:00 8,5 C 75 % 1021,4 hPa 0,0 l/m 0,0 km/h (0 Bft) SW 225 4,3 C 16,1 C 0,0 km/h (0 Bft)
16.03.2014 11:05 8,6 C 76 % 1021,6 hPa 0,0 l/m 0,0 km/h (0 Bft) SW 225 4,6 C 16,1 C 0,0 km/h (0 Bft)
16.03.2014 11:10 8,8 C 75 % 1021,6 hPa 0,0 l/m 0,0 km/h (0 Bft) SW 225 4,6 C 16,1 C 0,0 km/h (0 Bft)
16.03.2014 11:15 8,6 C 75 % 1021,6 hPa 0,0 l/m 0,0 km/h (0 Bft) SW 225 4,4 C 16,1 C 0,0 km/h (0 Bft)
16.03.2014 11:20 8,8 C 74 % 1021,6 hPa 0,0 l/m 0,0 km/h (0 Bft) SW 225 4,4 C 16,1 C 0,0 km/h (0 Bft)
16.03.2014 11:23 8,9 C 73 % 1021,5 hPa 0,0 l/m 0,0 km/h (0 Bft) SW 225 4,3 C 16,1 C 0,0 km/h (0 Bft)
16.03.2014 11:25 8,9 C 73 % 1021,5 hPa 0,0 l/m 0,0 km/h (0 Bft) SW 225 4,3 C 16,1 C 0,0 km/h (0 Bft)
16.03.2014 11:30 9,1 C 73 % 1021,5 hPa 0,0 l/m 0,0 km/h (0 Bft) SW 225 4,5 C 16,1 C 0,0 km/h (0 Bft)
16.03.2014 11:35 9,1 C 71 % 1021,5 hPa 0,0 l/m 0,0 km/h (0 Bft) SW 225 4,1 C 16,1 C 0,0 km/h (0 Bft)
16.03.2014 11:40 9,9 C 70 % 1021,5 hPa 0,0 l/m 0,0 km/h (0 Bft) SW 225 4,7 C 16,1 C 0,0 km/h (0 Bft)
16.03.2014 11:45 9,7 C 70 % 1021,4 hPa 0,0 l/m 0,0 km/h (0 Bft) SW 225 4,5 C 16,1 C 0,0 km/h (0 Bft)
16.03.2014 11:50 9,4 C 70 % 1021,4 hPa 0,0 l/m 0,0 km/h (0 Bft) SW 225 4,2 C 16,1 C 0,0 km/h (0 Bft)
16.03.2014 11:55 9,2 C 70 % 1021,4 hPa 0,0 l/m 0,0 km/h (0 Bft) SW 225 4,0 C 16,1 C 0,0 km/h (0 Bft)
16.03.2014 12:00 8,9 C 71 % 1021,4 hPa 0,0 l/m 0,0 km/h (0 Bft) SW 225 3,9 C 16,1 C 0,0 km/h (0 Bft)
16.03.2014 12:05 8,9 C 72 % 1021,9 hPa 0,0 l/m 0,0 km/h (0 Bft) SW 225 4,1 C 16,1 C 0,0 km/h (0 Bft)
16.03.2014 12:10 8,7 C 72 % 1021,9 hPa 0,0 l/m 0,0 km/h (0 Bft) SW 225 3,9 C 16,1 C 0,0 km/h (0 Bft)
16.03.2014 12:15 8,7 C 71 % 1021,9 hPa 0,0 l/m 0,0 km/h (0 Bft) SW 225 3,7 C 16,1 C 0,0 km/h (0 Bft)
16.03.2014 12:20 8,5 C 72 % 1021,9 hPa 0,0 l/m 0,0 km/h (0 Bft) SW 225 3,7 C 16,1 C 0,0 km/h (0 Bft)
16.03.2014 12:25 8,5 C 73 % 1021,7 hPa 0,0 l/m 0,0 km/h (0 Bft) SW 225 3,9 C 16,1 C 0,0 km/h (0 Bft)
16.03.2014 12:30 8,6 C 73 % 1021,7 hPa 0,0 l/m 0,0 km/h (0 Bft) SW 225 4,0 C 16,1 C 0,0 km/h (0 Bft)
16.03.2014 12:35 8,6 C 73 % 1021,7 hPa 0,0 l/m 0,0 km/h (0 Bft) SW 225 4,0 C 16,1 C 0,0 km/h (0 Bft)
16.03.2014 12:40 8,8 C 73 % 1021,7 hPa 0,0 l/m 0,0 km/h (0 Bft) SW 225 4,2 C 16,1 C 0,0 km/h (0 Bft)
16.03.2014 12:45 8,9 C 73 % 1021,3 hPa 0,0 l/m 0,0 km/h (0 Bft) SW 225 4,3 C 16,1 C 0,0 km/h (0 Bft)
16.03.2014 12:50 9,1 C 72 % 1021,3 hPa 0,0 l/m 0,0 km/h (0 Bft) SW 225 4,3 C 16,1 C 0,0 km/h (0 Bft)
16.03.2014 12:55 9,0 C 71 % 1021,3 hPa 0,0 l/m 0,0 km/h (0 Bft) SW 225 4,0 C 16,1 C 0,0 km/h (0 Bft)
16.03.2014 13:00 9,2 C 71 % 1021,3 hPa 0,0 l/m 0,0 km/h (0 Bft) SW 225 4,2 C 16,1 C 0,0 km/h (0 Bft)
16.03.2014 13:05 9,3 C 71 % 1021,2 hPa 0,0 l/m 0,0 km/h (0 Bft) SW 225 4,3 C 16,1 C 0,0 km/h (0 Bft)
16.03.2014 13:10 9,7 C 70 % 1021,2 hPa 0,0 l/m 0,0 km/h (0 Bft) SW 225 4,5 C 16,1 C 0,0 km/h (0 Bft)
16.03.2014 13:15 9,7 C 69 % 1021,2 hPa 0,0 l/m 0,0 km/h (0 Bft) SW 225 4,3 C 16,1 C 0,0 km/h (0 Bft)
16.03.2014 13:20 9,6 C 69 % 1021,2 hPa 0,0 l/m 0,0 km/h (0 Bft) SW 225 4,2 C 16,1 C 0,0 km/h (0 Bft)
16.03.2014 13:25 9,7 C 69 % 1021,5 hPa 0,0 l/m 0,0 km/h (0 Bft) SW 225 4,3 C 16,1 C 0,0 km/h (0 Bft)
16.03.2014 13:30 9,8 C 68 % 1021,5 hPa 0,0 l/m 0,0 km/h (0 Bft) SW 225 4,2 C 16,1 C 0,0 km/h (0 Bft)
16.03.2014 13:35 10,0 C 68 % 1021,5 hPa 0,0 l/m 0,0 km/h (0 Bft) SW 225 4,4 C 16,1 C 0,0 km/h (0 Bft)
16.03.2014 13:40 10,0 C 66 % 1021,5 hPa 0,0 l/m 0,0 km/h (0 Bft) SW 225 3,9 C 16,1 C 0,0 km/h (0 Bft)
16.03.2014 13:45 10,1 C 67 % 1021,4 hPa 0,0 l/m 0,0 km/h (0 Bft) SW 225 4,3 C 16,1 C 0,0 km/h (0 Bft)
16.03.2014 13:50 9,9 C 68 % 1021,4 hPa 0,0 l/m 0,0 km/h (0 Bft) SW 225 4,3 C 16,1 C 0,0 km/h (0 Bft)
16.03.2014 13:55 9,8 C 68 % 1021,4 hPa 0,0 l/m 0,0 km/h (0 Bft) SW 225 4,2 C 16,1 C 0,0 km/h (0 Bft)
16.03.2014 14:00 9,9 C 68 % 1021,4 hPa 0,0 l/m 0,0 km/h (0 Bft) SW 225 4,3 C 16,1 C 0,0 km/h (0 Bft)
16.03.2014 14:05 10,0 C 68 % 1021,2 hPa 0,0 l/m 0,0 km/h (0 Bft) SW 225 4,4 C 16,1 C 0,0 km/h (0 Bft)
16.03.2014 14:10 10,2 C 67 % 1021,2 hPa 0,0 l/m 0,0 km/h (0 Bft) SW 225 4,4 C 16,1 C 0,0 km/h (0 Bft)
16.03.2014 14:15 10,3 C 66 % 1021,2 hPa 0,0 l/m 0,0 km/h (0 Bft) SW 225 4,2 C 16,1 C 0,0 km/h (0 Bft)
16.03.2014 14:20 10,6 C 66 % 1021,2 hPa 0,0 l/m 0,0 km/h (0 Bft) SW 225 4,5 C 16,1 C 0,0 km/h (0 Bft)
16.03.2014 14:25 10,8 C 64 % 1020,9 hPa 0,0 l/m 0,0 km/h (0 Bft) SW 225 4,3 C 16,1 C 0,0 km/h (0 Bft)
16.03.2014 14:30 11,0 C 65 % 1020,9 hPa 0,0 l/m 0,0 km/h (0 Bft) SW 225 4,7 C 16,1 C 0,0 km/h (0 Bft)
16.03.2014 14:35 10,9 C 64 % 1020,9 hPa 0,0 l/m 0,0 km/h (0 Bft) SW 225 4,4 C 16,1 C 0,0 km/h (0 Bft)
16.03.2014 14:40 11,2 C 63 % 1020,9 hPa 0,0 l/m 0,0 km/h (0 Bft) SW 225 4,4 C 16,1 C 0,0 km/h (0 Bft)
16.03.2014 14:45 11,2 C 63 % 1020,9 hPa 0,0 l/m 0,0 km/h (0 Bft) SW 225 4,4 C 16,1 C 0,0 km/h (0 Bft)
16.03.2014 14:50 11,6 C 63 % 1020,9 hPa 0,0 l/m 0,0 km/h (0 Bft) SW 225 4,8 C 16,1 C 0,0 km/h (0 Bft)
16.03.2014 14:55 12,0 C 62 % 1020,9 hPa 0,0 l/m 0,0 km/h (0 Bft) SW 225 4,9 C 16,1 C 0,0 km/h (0 Bft)
16.03.2014 15:00 12,8 C 58 % 1020,9 hPa 0,0 l/m 0,0 km/h (0 Bft) SW 225 4,7 C 16,1 C 0,0 km/h (0 Bft)
16.03.2014 15:05 12,9 C 57 % 1020,9 hPa 0,0 l/m 0,0 km/h (0 Bft) SW 225 4,6 C 16,1 C 0,0 km/h (0 Bft)
16.03.2014 15:10 13,4 C 56 % 1020,9 hPa 0,0 l/m 0,0 km/h (0 Bft) SW 225 4,8 C 16,1 C 0,0 km/h (0 Bft)
16.03.2014 15:15 13,7 C 55 % 1020,9 hPa 0,0 l/m 0,0 km/h (0 Bft) SW 225 4,8 C 16,1 C 0,0 km/h (0 Bft)
16.03.2014 15:20 14,0 C 53 % 1020,9 hPa 0,0 l/m 0,0 km/h (0 Bft) SW 225 4,6 C 16,1 C 0,0 km/h (0 Bft)
16.03.2014 15:25 13,1 C 54 % 1021,1 hPa 0,0 l/m 0,0 km/h (0 Bft) SW 225 4,0 C 16,1 C 0,0 km/h (0 Bft)
16.03.2014 15:30 12,9 C 57 % 1021,1 hPa 0,0 l/m 0,0 km/h (0 Bft) SW 225 4,6 C 16,1 C 0,0 km/h (0 Bft)
16.03.2014 15:35 13,1 C 56 % 1021,1 hPa 0,0 l/m 0,0 km/h (0 Bft) SW 225 4,5 C 16,1 C 0,0 km/h (0 Bft)
16.03.2014 15:40 12,6 C 57 % 1021,1 hPa 0,0 l/m 0,0 km/h (0 Bft) SW 225 4,3 C 16,1 C 0,0 km/h (0 Bft)
16.03.2014 15:45 12,6 C 58 % 1021,1 hPa 0,0 l/m 0,0 km/h (0 Bft) SW 225 4,6 C 16,1 C 0,0 km/h (0 Bft)
16.03.2014 15:50 13,2 C 56 % 1021,1 hPa 0,0 l/m 0,0 km/h (0 Bft) SW 225 4,6 C 16,1 C 0,0 km/h (0 Bft)
16.03.2014 15:55 13,1 C 55 % 1021,1 hPa 0,0 l/m 0,0 km/h (0 Bft) SW 225 4,3 C 16,1 C 0,0 km/h (0 Bft)
16.03.2014 16:00 12,1 C 58 % 1021,1 hPa 0,0 l/m 0,0 km/h (0 Bft) SW 225 4,1 C 16,1 C 0,0 km/h (0 Bft)
16.03.2014 16:05 11,7 C 59 % 1021,6 hPa 0,0 l/m 0,0 km/h (0 Bft) SW 225 4,0 C 16,1 C 0,0 km/h (0 Bft)
16.03.2014 16:10 11,9 C 59 % 1021,6 hPa 0,0 l/m 0,0 km/h (0 Bft) SW 225 4,1 C 16,1 C 0,0 km/h (0 Bft)
16.03.2014 16:15 12,3 C 59 % 1021,6 hPa 0,0 l/m 0,0 km/h (0 Bft) SW 225 4,5 C 16,1 C 0,0 km/h (0 Bft)
16.03.2014 16:20 11,8 C 59 % 1021,6 hPa 0,0 l/m 0,0 km/h (0 Bft) SW 225 4,1 C 16,1 C 0,0 km/h (0 Bft)
16.03.2014 16:23 11,6 C 61 % 1021,4 hPa 0,0 l/m 0,0 km/h (0 Bft) SW 225 4,3 C 16,1 C 0,0 km/h (0 Bft)
16.03.2014 16:25 11,6 C 61 % 1021,4 hPa 0,0 l/m 0,0 km/h (0 Bft) SW 225 4,3 C 16,1 C 0,0 km/h (0 Bft)
16.03.2014 16:30 11,6 C 62 % 1021,4 hPa 0,0 l/m 0,0 km/h (0 Bft) SW 225 4,6 C 16,1 C 0,0 km/h (0 Bft)
16.03.2014 16:35 11,6 C 62 % 1021,4 hPa 0,0 l/m 0,0 km/h (0 Bft) SW 225 4,6 C 16,1 C 0,0 km/h (0 Bft)
16.03.2014 16:40 11,2 C 63 % 1021,4 hPa 0,0 l/m 0,0 km/h (0 Bft) SW 225 4,4 C 16,1 C 0,0 km/h (0 Bft)
16.03.2014 16:45 11,2 C 63 % 1021,4 hPa 0,0 l/m 0,0 km/h (0 Bft) SW 225 4,4 C 16,1 C 0,0 km/h (0 Bft)
16.03.2014 16:50 11,0 C 64 % 1021,4 hPa 0,0 l/m 0,0 km/h (0 Bft) SW 225 4,5 C 16,1 C 0,0 km/h (0 Bft)
16.03.2014 16:55 10,8 C 65 % 1021,4 hPa 0,0 l/m 0,0 km/h (0 Bft) SW 225 4,5 C 16,1 C 0,0 km/h (0 Bft)
16.03.2014 17:00 10,7 C 65 % 1021,4 hPa 0,0 l/m 0,0 km/h (0 Bft) SW 225 4,4 C 16,1 C 0,0 km/h (0 Bft)
16.03.2014 17:05 10,6 C 65 % 1021,0 hPa 0,0 l/m 0,0 km/h (0 Bft) SW 225 4,3 C 16,1 C 0,0 km/h (0 Bft)
16.03.2014 17:10 10,4 C 66 % 1021,0 hPa 0,0 l/m 0,0 km/h (0 Bft) SW 225 4,3 C 16,1 C 0,0 km/h (0 Bft)
16.03.2014 17:15 10,2 C 67 % 1021,0 hPa 0,0 l/m 0,0 km/h (0 Bft) SW 225 4,4 C 16,1 C 0,0 km/h (0 Bft)
16.03.2014 17:20 10,1 C 68 % 1021,0 hPa 0,0 l/m 0,0 km/h (0 Bft) SW 225 4,5 C 16,1 C 0,0 km/h (0 Bft)
16.03.2014 17:25 10,0 C 68 % 1020,8 hPa 0,0 l/m 0,0 km/h (0 Bft) SW 225 4,4 C 16,1 C 0,0 km/h (0 Bft)
16.03.2014 17:30 9,8 C 69 % 1020,8 hPa 0,0 l/m 0,0 km/h (0 Bft) SW 225 4,4 C 16,1 C 0,0 km/h (0 Bft)
16.03.2014 17:35 9,5 C 69 % 1020,8 hPa 0,0 l/m 0,0 km/h (0 Bft) SW 225 4,1 C 16,1 C 0,0 km/h (0 Bft)
16.03.2014 17:40 9,5 C 70 % 1020,8 hPa 0,0 l/m 0,0 km/h (0 Bft) SW 225 4,3 C 16,1 C 0,0 km/h (0 Bft)
16.03.2014 17:45 9,3 C 70 % 1020,7 hPa 0,0 l/m 0,0 km/h (0 Bft) SW 225 4,1 C 16,1 C 0,0 km/h (0 Bft)
16.03.2014 17:50 9,6 C 71 % 1020,7 hPa 0,0 l/m 0,0 km/h (0 Bft) SW 225 4,6 C 16,1 C 0,0 km/h (0 Bft)
16.03.2014 17:55 9,3 C 70 % 1020,7 hPa 0,0 l/m 0,0 km/h (0 Bft) SW 225 4,1 C 16,1 C 0,0 km/h (0 Bft)
16.03.2014 18:00 9,1 C 71 % 1020,7 hPa 0,0 l/m 0,0 km/h (0 Bft) SW 225 4,1 C 16,1 C 0,0 km/h (0 Bft)
16.03.2014 18:05 8,9 C 71 % 1020,8 hPa 0,0 l/m 0,0 km/h (0 Bft) SW 225 3,9 C 16,1 C 0,0 km/h (0 Bft)
16.03.2014 18:10 8,6 C 72 % 1020,8 hPa 0,0 l/m 0,0 km/h (0 Bft) SW 225 3,8 C 16,1 C 0,0 km/h (0 Bft)
16.03.2014 18:15 8,6 C 72 % 1020,8 hPa 0,0 l/m 0,0 km/h (0 Bft) SW 225 3,8 C 16,1 C 0,0 km/h (0 Bft)
16.03.2014 18:20 8,8 C 72 % 1020,8 hPa 0,0 l/m 0,0 km/h (0 Bft) SW 225 4,0 C 16,1 C 0,0 km/h (0 Bft)
16.03.2014 18:25 8,9 C 72 % 1020,7 hPa 0,0 l/m 0,0 km/h (0 Bft) SW 225 4,1 C 16,1 C 0,0 km/h (0 Bft)
16.03.2014 18:30 8,9 C 71 % 1020,7 hPa 0,0 l/m 0,0 km/h (0 Bft) SW 225 3,9 C 16,1 C 0,0 km/h (0 Bft)
16.03.2014 18:35 9,1 C 70 % 1020,7 hPa 0,0 l/m 0,0 km/h (0 Bft) SW 225 3,9 C 16,1 C 0,0 km/h (0 Bft)
16.03.2014 18:40 9,2 C 69 % 1020,7 hPa 0,0 l/m 0,0 km/h (0 Bft) SW 225 3,8 C 16,1 C 0,0 km/h (0 Bft)
16.03.2014 18:45 8,9 C 70 % 1020,7 hPa 0,0 l/m 0,0 km/h (0 Bft) SW 225 3,7 C 16,1 C 0,0 km/h (0 Bft)
16.03.2014 18:50 8,7 C 70 % 1020,7 hPa 0,0 l/m 0,0 km/h (0 Bft) SW 225 3,5 C 16,1 C 0,0 km/h (0 Bft)
16.03.2014 18:55 8,9 C 70 % 1020,7 hPa 0,0 l/m 0,0 km/h (0 Bft) SW 225 3,7 C 16,1 C 0,0 km/h (0 Bft)
16.03.2014 19:00 9,0 C 69 % 1020,7 hPa 0,0 l/m 0,0 km/h (0 Bft) SW 225 3,6 C 16,1 C 0,0 km/h (0 Bft)
16.03.2014 19:05 9,0 C 68 % 1020,7 hPa 0,0 l/m 0,0 km/h (0 Bft) SW 225 3,4 C 16,1 C 0,0 km/h (0 Bft)
16.03.2014 19:10 8,9 C 68 % 1020,7 hPa 0,0 l/m 0,0 km/h (0 Bft) SW 225 3,3 C 16,1 C 0,0 km/h (0 Bft)
16.03.2014 19:15 8,7 C 69 % 1020,7 hPa 0,0 l/m 0,0 km/h (0 Bft) SW 225 3,3 C 16,1 C 0,0 km/h (0 Bft)
16.03.2014 19:20 8,6 C 69 % 1020,7 hPa 0,0 l/m 0,0 km/h (0 Bft) SW 225 3,2 C 16,1 C 0,0 km/h (0 Bft)
16.03.2014 19:25 8,7 C 69 % 1020,8 hPa 0,0 l/m 0,0 km/h (0 Bft) SW 225 3,3 C 16,1 C 0,0 km/h (0 Bft)
16.03.2014 19:30 8,6 C 68 % 1020,8 hPa 0,0 l/m 0,0 km/h (0 Bft) SW 225 3,0 C 16,1 C 0,0 km/h (0 Bft)
16.03.2014 19:35 8,3 C 69 % 1020,8 hPa 0,0 l/m 0,0 km/h (0 Bft) SW 225 3,0 C 16,1 C 0,0 km/h (0 Bft)
16.03.2014 19:40 8,6 C 68 % 1020,8 hPa 0,0 l/m 0,0 km/h (0 Bft) SW 225 3,0 C 16,1 C 0,0 km/h (0 Bft)
16.03.2014 19:45 8,9 C 67 % 1020,6 hPa 0,0 l/m 0,0 km/h (0 Bft) SW 225 3,1 C 16,1 C 0,0 km/h (0 Bft)
16.03.2014 19:50 9,0 C 66 % 1020,6 hPa 0,0 l/m 0,0 km/h (0 Bft) SW 225 3,0 C 16,1 C 0,0 km/h (0 Bft)
16.03.2014 19:55 8,9 C 66 % 1020,6 hPa 0,0 l/m 0,0 km/h (0 Bft) SW 225 2,9 C 16,1 C 0,0 km/h (0 Bft)
16.03.2014 20:00 8,4 C 67 % 1020,6 hPa 0,0 l/m 0,0 km/h (0 Bft) SW 225 2,6 C 16,1 C 0,0 km/h (0 Bft)
16.03.2014 20:05 8,4 C 67 % 1020,8 hPa 0,0 l/m 0,0 km/h (0 Bft) SW 225 2,6 C 16,1 C 0,0 km/h (0 Bft)
16.03.2014 20:10 8,4 C 67 % 1020,8 hPa 0,0 l/m 0,0 km/h (0 Bft) SW 225 2,6 C 16,1 C 0,0 km/h (0 Bft)
16.03.2014 20:15 8,3 C 67 % 1020,8 hPa 0,0 l/m 0,0 km/h (0 Bft) SW 225 2,5 C 16,1 C 0,0 km/h (0 Bft)
16.03.2014 20:20 8,2 C 67 % 1020,8 hPa 0,0 l/m 0,0 km/h (0 Bft) SW 225 2,4 C 16,1 C 0,0 km/h (0 Bft)
16.03.2014 20:25 8,2 C 67 % 1020,9 hPa 0,0 l/m 0,0 km/h (0 Bft) SW 225 2,4 C 16,1 C 0,0 km/h (0 Bft)
16.03.2014 20:30 8,2 C 68 % 1020,9 hPa 0,0 l/m 0,0 km/h (0 Bft) SW 225 2,7 C 16,1 C 0,0 km/h (0 Bft)
16.03.2014 20:35 8,2 C 68 % 1020,9 hPa 0,0 l/m 0,0 km/h (0 Bft) SW 225 2,7 C 16,1 C 0,0 km/h (0 Bft)
16.03.2014 20:40 8,6 C 67 % 1020,9 hPa 0,0 l/m 0,0 km/h (0 Bft) SW 225 2,8 C 16,1 C 0,0 km/h (0 Bft)
16.03.2014 20:45 8,5 C 66 % 1020,9 hPa 0,0 l/m 0,0 km/h (0 Bft) SW 225 2,5 C 16,1 C 0,0 km/h (0 Bft)
16.03.2014 20:50 8,4 C 66 % 1020,9 hPa 0,0 l/m 0,0 km/h (0 Bft) SW 225 2,4 C 16,1 C 0,0 km/h (0 Bft)
16.03.2014 20:55 8,3 C 67 % 1020,9 hPa 0,0 l/m 0,0 km/h (0 Bft) SW 225 2,5 C 16,1 C 0,0 km/h (0 Bft)
16.03.2014 21:00 8,6 C 66 % 1020,9 hPa 0,0 l/m 0,0 km/h (0 Bft) SW 225 2,6 C 16,1 C 0,0 km/h (0 Bft)
16.03.2014 21:05 8,3 C 66 % 1020,8 hPa 0,0 l/m 0,0 km/h (0 Bft) SW 225 2,3 C 16,1 C 0,0 km/h (0 Bft)
16.03.2014 21:10 7,9 C 67 % 1020,8 hPa 0,0 l/m 0,0 km/h (0 Bft) SW 225 2,2 C 16,1 C 0,0 km/h (0 Bft)
16.03.2014 21:15 7,6 C 68 % 1020,8 hPa 0,0 l/m 0,0 km/h (0 Bft) SW 225 2,1 C 16,1 C 0,0 km/h (0 Bft)
16.03.2014 21:20 7,4 C 68 % 1020,8 hPa 0,0 l/m 0,0 km/h (0 Bft) SW 225 1,9 C 16,1 C 0,0 km/h (0 Bft)
16.03.2014 21:24 7,6 C 69 % 1021,1 hPa 0,0 l/m 0,0 km/h (0 Bft) SW 225 2,3 C 16,1 C 0,0 km/h (0 Bft)
16.03.2014 21:25 7,6 C 69 % 1021,1 hPa 0,0 l/m 0,0 km/h (0 Bft) SW 225 2,3 C 16,1 C 0,0 km/h (0 Bft)
16.03.2014 21:30 7,6 C 69 % 1021,1 hPa 0,0 l/m 0,0 km/h (0 Bft) SW 225 2,3 C 16,1 C 0,0 km/h (0 Bft)
16.03.2014 21:35 7,8 C 69 % 1021,1 hPa 0,0 l/m 0,0 km/h (0 Bft) SW 225 2,5 C 16,1 C 0,0 km/h (0 Bft)
16.03.2014 21:40 8,3 C 67 % 1021,1 hPa 0,0 l/m 0,0 km/h (0 Bft) SW 225 2,5 C 16,1 C 0,0 km/h (0 Bft)
16.03.2014 21:45 8,6 C 66 % 1021,4 hPa 0,0 l/m 0,0 km/h (0 Bft) SW 225 2,6 C 16,1 C 0,0 km/h (0 Bft)
16.03.2014 21:50 8,7 C 65 % 1021,4 hPa 0,0 l/m 0,0 km/h (0 Bft) SW 225 2,5 C 16,1 C 0,0 km/h (0 Bft)
16.03.2014 21:55 8,5 C 65 % 1021,4 hPa 0,0 l/m 0,0 km/h (0 Bft) SW 225 2,3 C 16,1 C 0,0 km/h (0 Bft)
16.03.2014 22:00 8,6 C 65 % 1021,4 hPa 0,0 l/m 0,0 km/h (0 Bft) SW 225 2,4 C 16,1 C 0,0 km/h (0 Bft)
16.03.2014 22:05 8,7 C 65 % 1021,5 hPa 0,0 l/m 0,0 km/h (0 Bft) SW 225 2,5 C 16,1 C 0,0 km/h (0 Bft)
16.03.2014 22:10 8,4 C 65 % 1021,5 hPa 0,0 l/m 0,0 km/h (0 Bft) SW 225 2,2 C 16,1 C 0,0 km/h (0 Bft)
16.03.2014 22:15 8,1 C 66 % 1021,5 hPa 0,0 l/m 0,0 km/h (0 Bft) SW 225 2,1 C 16,1 C 0,0 km/h (0 Bft)
16.03.2014 22:20 7,9 C 67 % 1021,5 hPa 0,0 l/m 0,0 km/h (0 Bft) SW 225 2,2 C 16,1 C 0,0 km/h (0 Bft)
16.03.2014 22:25 8,2 C 67 % 1021,6 hPa 0,0 l/m 0,0 km/h (0 Bft) SW 225 2,4 C 16,1 C 0,0 km/h (0 Bft)
16.03.2014 22:30 8,1 C 66 % 1021,6 hPa 0,0 l/m 0,0 km/h (0 Bft) SW 225 2,1 C 16,1 C 0,0 km/h (0 Bft)
16.03.2014 22:35 8,1 C 66 % 1021,6 hPa 0,0 l/m 0,0 km/h (0 Bft) SW 225 2,1 C 16,1 C 0,0 km/h (0 Bft)
16.03.2014 22:40 7,9 C 67 % 1021,6 hPa 0,0 l/m 0,0 km/h (0 Bft) SW 225 2,2 C 16,1 C 0,0 km/h (0 Bft)
16.03.2014 22:45 8,1 C 67 % 1021,6 hPa 0,0 l/m 0,0 km/h (0 Bft) SW 225 2,3 C 16,1 C 0,0 km/h (0 Bft)
16.03.2014 22:50 8,1 C 67 % 1021,6 hPa 0,0 l/m 0,0 km/h (0 Bft) SW 225 2,3 C 16,1 C 0,0 km/h (0 Bft)
16.03.2014 22:55 8,1 C 67 % 1021,6 hPa 0,0 l/m 0,0 km/h (0 Bft) SW 225 2,3 C 16,1 C 0,0 km/h (0 Bft)
16.03.2014 23:00 8,1 C 67 % 1021,6 hPa 0,0 l/m 0,0 km/h (0 Bft) SW 225 2,3 C 16,1 C 0,0 km/h (0 Bft)
16.03.2014 23:05 8,0 C 67 % 1021,8 hPa 0,0 l/m 0,0 km/h (0 Bft) SW 225 2,3 C 16,1 C 0,0 km/h (0 Bft)
16.03.2014 23:10 8,0 C 67 % 1021,8 hPa 0,0 l/m 0,0 km/h (0 Bft) SW 225 2,3 C 16,1 C 0,0 km/h (0 Bft)
16.03.2014 23:15 8,0 C 67 % 1021,8 hPa 0,0 l/m 0,0 km/h (0 Bft) SW 225 2,3 C 16,1 C 0,0 km/h (0 Bft)
16.03.2014 23:20 8,0 C 67 % 1021,8 hPa 0,0 l/m 0,0 km/h (0 Bft) SW 225 2,3 C 16,1 C 0,0 km/h (0 Bft)
16.03.2014 23:25 7,9 C 67 % 1021,9 hPa 0,0 l/m 0,0 km/h (0 Bft) SW 225 2,2 C 16,1 C 0,0 km/h (0 Bft)
16.03.2014 23:30 8,2 C 67 % 1021,9 hPa 0,0 l/m 0,0 km/h (0 Bft) SW 225 2,4 C 16,1 C 0,0 km/h (0 Bft)
16.03.2014 23:35 8,1 C 67 % 1021,9 hPa 0,0 l/m 0,0 km/h (0 Bft) SW 225 2,3 C 16,1 C 0,0 km/h (0 Bft)
16.03.2014 23:40 8,1 C 67 % 1021,9 hPa 0,0 l/m 0,0 km/h (0 Bft) SW 225 2,3 C 16,1 C 0,0 km/h (0 Bft)
16.03.2014 23:45 8,1 C 67 % 1021,8 hPa 0,0 l/m 0,0 km/h (0 Bft) SW 225 2,3 C 16,1 C 0,0 km/h (0 Bft)
16.03.2014 23:50 8,0 C 68 % 1021,8 hPa 0,0 l/m 0,0 km/h (0 Bft) SW 225 2,5 C 16,1 C 0,0 km/h (0 Bft)
16.03.2014 23:55 7,8 C 68 % 1021,8 hPa 0,0 l/m 0,0 km/h (0 Bft) SW 225 2,3 C 16,1 C 0,0 km/h (0 Bft)
_ Min-Zeit 03:10 15:20 06:00 - 23:55 - - 01:10 23:55 23:55
Minimum _ 2,8 C 53 % 1020,1 hPa - 0,0 km/h (0 Bft) - - 1,8 C 16,1 C 0,0 km/h (0 Bft)
_ Max-Zeit 15:20 03:35 23:40 23:55 23:55 - - 10:30 23:55 23:55
Maximum _ 14,0 C 95 % 1021,9 hPa 0,0 l/m 0,0 km/h
SW (0 Bft)
- - 5,5 C 16,1 C 0,0 km/h
SW (0 Bft)
Durchschnitt _ 7,0 C 78 % 1021,1 hPa #0,0 l/m 0,0 km/h (0 Bft) - - - 3,2 C 16,1 C 0,0 km/h (0 Bft)